Regional Weather Roundup
Issued by NWS

Home | Current Version | Previous Version | Text Only | Print | Product List | Glossary Off
Versions: 1 2 3 4 5 6 7 8 9 10 11 12 13 14 15 16 17 18 19 20 21 22 23 24 25 26 27 28 29 30 31 32 33 34 35 36 37 38 39 40 41 42 43 44 45 46 47 48 49 50

000
ASUS43 KOAX 240802
RWRNE

WEATHER ROUNDUP FOR NEBRASKA
NATIONAL WEATHER SERVICE OMAHA NE
300 AM CDT FRI OCT 24 2014

NOTES: SATELLITE DATA IS BEING USED TO AUGMENT CLOUD COVER ABOVE
       12000 FEET.
       "FAIR" INDICATES FEW OR NO CLOUDS BELOW 12,000 FEET WITH NO
       SIGNIFICANT WEATHER AND/OR OBSTRUCTIONS TO VISIBILITY.

  * THESE STATIONS DO NOT REPORT WEATHER SUCH AS RAIN...SNOW OR FOG.

NEZ001>004-019>022-054>056-240900-
NEBRASKA PANHANDLE

CITY           SKY/WX    TMP DP  RH WIND       PRES   REMARKS
SCOTTSBLUFF    CLOUDY    45  37  73 CALM      30.02R
ALLIANCE       MOCLDY    45  32  60 CALM      29.99S
CHADRON        CLOUDY    39  34  82 CALM      29.94S
KIMBALL        MOCLDY    50  34  53 W9        30.07S
SIDNEY         MOCLDY    47  33  58 SW9       30.06S
$$

NEZ057>060-069>072-079>082-240900-
SOUTHWEST NEBRASKA

CITY           SKY/WX    TMP DP  RH WIND       PRES   REMARKS
NORTH PLATTE   PTCLDY    46  44  93 W5        29.99S
IMPERIAL       PTCLDY    49  39  68 W8        30.02S
LEXINGTON      PTCLDY    58  55  89 CALM      29.99R
MCCOOK         PTCLDY    54  51  90 W9        30.01F FOG
OGALLALA       CLEAR     42  37  80 CALM      30.01S
$$

NEZ005>010-023>029-035>040-094-240900-
NORTH CENTRAL NEBRASKA

CITY           SKY/WX    TMP DP  RH WIND       PRES   REMARKS
VALENTINE      MOCLDY    40  35  83 W6        29.93R
AINSWORTH      MOCLDY    46  38  71 W5        29.92S
BROKEN BOW     CLEAR     55  51  86 SW3       29.95F
O`NEILL        MOCLDY    54  53  96 SW9       29.90S
ORD            CLEAR     56  53  90 S6        29.93F
THEDFORD       MOCLDY    49  38  66 CALM      29.96S
$$

NEZ041-046>049-061>064-073>077-083>087-240900-
SOUTH CENTRAL NEBRASKA

CITY           SKY/WX    TMP DP  RH WIND       PRES   REMARKS
GRAND ISLAND   CLEAR     58  55  90 SW12      29.97F
AURORA         CLEAR     57  57 100 SW10      29.98F
HASTINGS       CLEAR     57  53  86 S8        29.98F FOG
HEBRON         CLEAR     60  56  88 S6        30.00S FOG
HOLDREGE       PTCLDY    56  54  92 CALM      30.00S
KEARNEY *      CLEAR     54  52  94 S9        29.99F
YORK           CLEAR     57  57 100 S9        29.98S
$$

NEZ011>018-030>034-042>045-240900-
NORTHEAST NEBRASKA

CITY           SKY/WX    TMP DP  RH WIND       PRES   REMARKS
NORFOLK        PTCLDY    56  54  93 S9        29.93F
ALBION         CLEAR     55  52  90 SE6       29.94F FOG
BLAIR          CLEAR     57  53  84 S10       29.97S
COLUMBUS *     CLEAR     57  52  82 SW9       29.97F
FREMONT        PTCLDY    60  53  79 S5        29.98R
WAYNE          PTCLDY    54  51  90 S6        29.92F
$$

NEZ050>053-065>068-078-088>093-240900-
SOUTHEAST NEBRASKA

CITY           SKY/WX    TMP DP  RH WIND       PRES   REMARKS
LINCOLN        PTCLDY    60  56  86 S9        29.99F
BEATRICE       PTCLDY    59  57  95 S8        30.00F FOG
FALLS CITY     CLOUDY    59  58  96 S10       30.03R FOG
NEBRASKA CITY  CLEAR     56  56 100 S8        30.01F FOG
PLATTSMOUTH    PTCLDY    55  53  91 S7        30.00S
$$

NEZ044-045-051>053-067-240900-
OMAHA AREA

CITY           SKY/WX    TMP DP  RH WIND       PRES   REMARKS
BLAIR          CLEAR     57  53  84 S10       29.97S
FREMONT        PTCLDY    60  53  79 S5        29.98R
OFFUTT AFB     PTCLDY    54  54  99 VRB3      29.99F
PLATTSMOUTH    PTCLDY    55  53  91 S7        30.00S
WAHOO          FAIR      50  47  88 CALM      29.97S
$$



USA.gov is the U.S. government's official web portal to all federal, state and local government web resources and services.